Hourly Data Report for October 21, 2015

All times are specified in Local Standard Time (LST). Add 1 hour to adjust for Daylight Saving Time where and when it is observed.

CORAL HARBOUR A
NUNAVUT

64°11'36.000" N
83°21'34.000" W
62.20 m
2301002
71915
YZS

Download Data

Hourly Data (October 2015)
Hourly Data Report for October 21, 2015
Temp Definition
°C
Dew Point Temp Definition
°C
Rel Hum Definition
%
Wind Dir Definition
10's deg

Wind Spd Definition
km/h
Visibility Definition
km
Stn Press Definition
kPa
Hmdx Definition


Wind Chill Definition


Weather Definition


TIME
00:00 Legend Double Dagger -12.4 -14.9 82 35 16 24.1 101.24   -20 LegendNANA
01:00 Legend Double Dagger -12.1 -14.6 82 34 13 24.1 101.25   -19 Mainly Clear
02:00 Legend Double Dagger -8.5 -11.0 82 27 12 24.1 101.22   -14 LegendNANA
03:00
04:00 Legend Double Dagger -9.2 -11.6 83 29 29 24.1 101.20   -18 Mostly Cloudy
05:00 Legend Double Dagger -8.6 -10.8 84 27 27 19.3 101.20   -17 Snow
06:00 Legend Double Dagger -8.6 -10.5 86 28 30 19.3 101.18   -18 Snow
07:00 Legend Double Dagger -9.1 -10.9 87 29 27 24.1 101.20   -18 Snow
08:00 Legend Double Dagger -8.6 -10.2 88 28 23 24.1 101.16   -17 Snow
09:00 Legend Double Dagger -8.1 -10.0 86 28 35 24.1 101.13   -18 Snow
10:00 Legend Double Dagger -8.1 -10.7 82 27 23 24.1 101.14   -16 Snow
11:00 Legend Double Dagger -7.3 -9.9 82 28 32 24.1 101.10   -16 Snow
12:00 Legend Double Dagger -7.1 -10.3 78 29 33 24.1 101.12   -16 Snow
13:00 Legend Double Dagger -6.7 -10.4 75 30 33 24.1 101.15   -16 Snow
14:00 Legend Double Dagger -6.8 -10.5 75 29 30 24.1 101.16   -15 LegendNANA
15:00 Legend Double Dagger -7.3 -10.5 78 30 29 24.1 101.14   -16 LegendNANA
16:00 Legend Double Dagger -7.8 -11.3 76 30 32 24.1 101.17   -17 Mostly Cloudy
17:00 Legend Double Dagger -8.4 -10.8 83 31 18 24.1 101.24   -15 LegendNANA
18:00 Legend Double Dagger -9.0 -11.7 81 34 16 24.1 101.26   -16 LegendNANA
19:00 Legend Double Dagger -10.1 -13.2 78 32 12 24.1 101.31   -16 Mostly Cloudy
20:00 Legend Double Dagger -8.8 -12.3 76 31 15 24.1 101.31   -15 LegendNANA
21:00 Legend Double Dagger -7.9 -11.9 73 32 19 24.1 101.33   -15 Snow
22:00 Legend Double Dagger -8.1 -12.0 74 30 11 24.1 101.36   -13 Snow
23:00 Legend Double Dagger -8.1 -12.5 71 32 16 24.1 101.37   -15 Snow

Notes on Data Quality.

Legend

  • E = Estimated
  • M = Missing
  • NA = Not Available
  • ‡ = Partner data that is not subject to review by the National Climate Archives
Date modified: